Location: Bode?ti
(46.4000°N, 22.9667°E)
Time: 22:14:05
(UTC+00:00)

Daily predictions for brighter satellites

Satellite Brightness Start Highest point End
(mag) Time Altitude Azimuth Time Altitude Azimuth Time Altitude Azimuth
Cosmos 1607 4.1 15:04:44 10° SW 15:11:04 86° NW 15:17:34 10° NE
ATLAS 2AS CENTAUR R/B 3.7 15:08:45 10° NNW 15:14:34 27° NNE 15:20:09 10° E
SL-8 R/B 3.7 15:11:06 10° WNW 15:15:53 88° NNE 15:20:41 10° ESE
Cosmos 1602 4.3 15:15:24 10° N 15:18:50 33° ENE 15:22:14 10° SE
CZ-4B R/B 4.4 15:15:07 10° ESE 15:19:09 25° ENE 15:23:07 10° N
Cosmos 1943 3.5 15:14:03 10° NNW 15:19:25 42° NE 15:24:45 10° SE
Cosmos 1606 4.5 15:18:33 10° SW 15:21:47 30° WNW 15:25:05 10° N
USA 305 2.7 15:19:53 10° NW 15:23:38 55° NNE 15:27:25 10° ESE
Helios 1A 4.3 15:23:36 10° NE 15:26:42 20° E 15:29:45 10° SE
SMAP 3.2 15:22:31 10° SSE 15:27:01 52° ENE 15:31:34 10° N
SL-16 R/B 4.3 15:23:55 10° N 15:29:11 29° WNW 15:34:25 10° WSW
Cosmos 1953 Rocket 4.4 15:24:54 10° NNW 15:29:16 55° W 15:33:33 10° S
Cosmos 2297 Rocket 4.0 15:25:04 10° WSW 15:29:46 26° NW 15:34:30 10° N
Helios 1B rocket 2.5 15:26:15 10° S 15:30:11 78° WSW 15:34:09 10° NNW
Cosmos 2344 4.1 15:23:11 10° S 15:30:12 39° ESE 15:36:51 10° NE
Cosmos 1500 2.9 15:27:35 10° N 15:31:07 82° E 15:34:38 10° S
Aureole 3 Rocket 4.1 15:27:43 10° NNW 15:31:57 43° W 15:35:13 10° SSW
Cosmos 407 Rocket 4.0 15:27:54 10° N 15:32:37 34° ENE 15:37:15 10° SE
CZ-4B R/B 3.9 15:29:41 10° SE 15:33:06 43° ENE 15:36:35 10° N
Cosmos 2219 3.9 15:30:32 10° SW 15:36:01 55° WNW 15:41:35 10° NNE
Cosmos 2251 Rocket 3.9 15:35:05 10° N 15:40:10 42° ENE 15:45:15 10° SE
Cosmos 405 Rocket 3.8 15:36:43 10° SSW 15:40:21 45° WNW 15:44:05 10° N
ISS -2.6 15:42:28 10° WNW 15:45:41 45° SW 15:48:54 10° SE
Radarsat 4.5 15:41:30 10° SSE 15:46:39 72° ENE 15:51:51 10° N
Lacrosse 5 3.0 15:45:12 10° S 15:49:27 28° SE 15:52:30 16° ENE
Cosmos 2082 4.1 15:45:33 10° SW 15:51:07 65° WNW 15:56:45 10° NNE
Cosmos 2151 4.3 15:48:51 10° NNW 15:52:55 44° W 15:56:58 10° SSW
Cosmos-2242 3.1 15:49:32 10° S 15:53:48 58° E 15:58:04 10° NNE
COSMO-SKYMED 1 3.5 15:52:17 13° NE 15:55:19 27° E 15:59:00 10° SSE
USA 234 3.6 15:50:14 14° ENE 15:55:49 52° SE 16:02:10 10° SSW
Cosmos 2058 Rocket 4.1 15:52:01 10° SSW 15:56:18 47° WNW 16:00:34 10° N
Lacrosse 4 Rocket 1.3 15:52:44 10° NNW 15:57:05 72° ENE 16:01:18 10° SE
Meteor 1-25 Rocket 4.2 15:54:42 10° N 16:00:18 58° ENE 16:05:48 10° SSE
Cosmos 1023 Rocket 4.4 15:56:39 10° NNW 16:01:50 82° ENE 16:06:56 10° SSE
Cosmos 2026 Rocket 4.4 15:56:59 10° SSE 16:02:46 41° E 16:08:39 10° NNE
Cosmos 1818 3.8 15:59:02 10° SSW 16:04:16 52° ESE 16:08:06 19° NE
Cosmos 2221 3.8 16:01:24 10° SE 16:04:18 20° E 16:04:18 20° E
APEX 2.4 16:01:38 10° SSW 16:04:36 60° ESE 16:05:46 30° NE
Cosmos 1190 Rocket 4.5 15:59:43 10° N 16:04:40 38° ENE 16:09:34 10° SE
Cosmos 1812 2.5 16:05:29 10° S 16:09:09 83° E 16:12:51 10° N
AQUARIUS 4.4 16:07:42 10° S 16:12:09 74° WSW 16:16:39 10° NNW
USA 276 1.7 16:14:38 10° W 16:17:01 53° NNW 16:17:13 50° N
Cosmos 2263 Rocket 3.0 16:12:05 10° SW 16:17:26 48° WNW 16:22:51 10° NNE
Cosmos 1844 Rocket 3.1 16:12:21 10° S 16:17:30 41° ESE 16:20:21 24° NE
Cosmos 1092 Rocket 4.0 16:14:08 10° S 16:20:05 57° E 16:26:05 10° NNE
Nadezhda 4 Rocket 4.1 16:14:04 10° S 16:20:13 80° W 16:26:23 10° N
Cosmos 2227 4.2 16:19:59 10° SSW 16:25:45 89° WNW 16:30:34 15° NNE
Cosmos 1420 Rocket 4.4 16:21:22 10° S 16:26:14 40° ESE 16:28:11 29° ENE
Cosmos 2227 Rocket 4.4 16:22:23 10° W 16:26:20 19° NW 16:30:18 10° N
USA 307 3.8 16:23:02 10° WNW 16:26:42 42° SW 16:30:15 10° SSE
Cosmos 1766 Rocket 4.0 16:23:03 10° N 16:27:07 37° ENE 16:31:07 10° SE
YAOGAN 1 4.0 16:29:59 21° NNE 16:29:59 21° NNE 16:31:48 10° N
Meteor 1-20 Rocket 4.5 16:22:52 10° NNW 16:28:26 72° W 16:34:05 10° S
Cosmos 1140 Rocket 4.0 16:24:17 10° NNW 16:29:24 62° WSW 16:34:27 10° S
ADEOS 3.6 16:24:28 10° SE 16:29:31 53° ENE 16:34:36 10° N
Cosmos 1933 3.2 16:26:37 10° S 16:30:32 61° E 16:32:19 30° NNE
Meteor 1-5 Rocket 4.3 16:25:42 10° N 16:31:17 53° ENE 16:37:00 10° SSE
Cosmos 1624 Rocket 4.3 16:29:06 10° S 16:33:58 42° ESE 16:35:20 35° ENE
Cosmos 1603 3.9 16:33:59 10° NNW 16:39:40 73° WSW 16:45:16 10° SSE
CBERS 1 LM4 rocket 4.3 16:35:01 10° SSE 16:39:50 85° WSW 16:44:36 10° NNW
CZ-4B R/B 4.5 16:45:00 23° N 16:45:00 23° N 16:46:46 10° N
SKYMED 2 3.4 16:40:54 23° NNE 16:43:35 83° ESE 16:47:55 10° SSW
Cosmos 192 4.2 16:42:52 10° SSW 16:47:44 76° ESE 16:49:36 38° NNE
SL-08 R/B 3.1 16:46:50 41° NE 16:48:19 65° ESE 16:52:56 10° S
Meteor 2-17 Rocket 4.4 16:43:08 10° S 16:49:16 89° W 16:55:26 10° N
ATLAS CENTAUR R/B 3.8 16:48:54 10° WNW 16:53:37 50° SW 17:02:34 10° SSE
CZ-4B R/B 4.4 16:52:38 10° S 16:57:32 48° W 17:02:20 10° NNW
RESURS DK-1 3.5 16:53:50 10° NNW 16:56:12 31° N 16:56:12 31° N
USA 305 4.4 16:54:58 10° WNW 16:58:20 29° SW 17:00:25 18° S
EO 1 Delta rocket 4.3 16:51:54 10° SSE 16:58:39 74° ENE 17:04:00 10° N
Cosmos 676 Rocket 3.9 16:53:23 10° NNW 16:58:41 63° ENE 16:59:43 52° ESE
Cosmos 1782 3.6 16:57:17 10° SSW 17:01:05 50° WNW 17:03:03 25° NNW
Helios 1A 4.2 16:58:42 13° N 17:02:06 40° WNW 17:05:58 10° SW
ATLAS 2AS CENTAUR R/B 2.5 16:59:42 10° NW 17:06:39 75° NE 17:09:08 41° SE
CZ-4B DEB 4.1 17:11:06 35° SSE 17:13:32 74° ENE 17:19:05 10° NNW
Cosmos 1241 Rocket 4.3 17:08:23 10° SSW 17:14:46 75° ESE 17:15:57 59° ENE
SME Rocket 4.3 17:20:35 10° SSE 17:26:07 81° WSW 17:34:51 10° NNW
Cosmos 2056 Rocket 3.8 17:22:26 10° SSW 17:27:47 69° WNW 17:28:45 56° NNW
COSMOS 2455 3.3 17:22:36 10° SSW 17:27:03 46° SSE 17:27:03 46° SSE
Timation 2 Rocket 4.1 17:23:05 10° SW 17:29:00 68° WNW 17:30:41 47° N
Cosmos 1844 3.9 17:23:25 10° SW 17:29:10 69° WNW 17:30:24 53° N
Cosmos 1954 Rocket 4.4 17:24:11 10° NNW 17:29:23 62° WSW 17:31:28 35° S
COSMO-SKYMED 1 4.2 17:29:30 22° NNW 17:31:30 33° WNW 17:35:22 10° SW
Lacrosse 5 2.2 17:27:05 10° WSW 17:31:43 63° WNW 17:31:43 63° WNW
Cosmos 1833 Rocket 4.3 17:31:39 10° NNW 17:33:48 22° N 17:33:48 22° N
USA 234 3.5 17:37:35 51° NNE 17:38:54 61° NNW 17:45:19 10° WSW
Cosmos 1553 Rocket 4.3 17:34:07 10° NNW 17:40:23 65° W 17:46:29 10° S
Cosmos 2221 3.9 17:37:42 10° SW 17:41:02 35° W 17:41:02 35° W
Cosmos 2344 4.1 17:37:09 10° WSW 17:44:20 50° NW 17:47:05 35° NNE
Cosmos 1844 Rocket 3.9 17:56:22 10° WSW 18:01:27 35° NW 18:02:02 34° NW
ATLAS 2AS CENTAUR R/B 4.4 18:51:34 10° WNW 18:56:38 25° WSW 18:56:38 25° WSW
